User: anonymous   Login
Location: Chervonnoye
(48.6000°N, 34.4000°E)
Time: 04:08:44
(UTC+00:00)
Language:

ITAMSAT 1 - Orbit

View from above orbital plane
View from above orbital plane
View from above satellite
View from above satellite

Ground track
Ground track

The orbit data is extracted from the following two-line orbital elements,

1 22826U 93061D   21339.57893107  .00000014  00000-0  23375-4 0  9996
2 22826  98.9015   1.2065 0008085 240.2746 119.7632 14.30475289470692
Epoch (UTC): 05 December 2021 13:53:39
Eccentricity: 0.0008085
inclination: 98.9015°
perigee height: 784 km
apogee height: 796 km
right ascension of ascending node: 1.2065°
argument of perigee: 240.2746°
revolutions per day: 14.30475289
mean anomaly at epoch: 119.7632°
orbit number at epoch: 47069

The dashed part of the orbit path shows where the satellite is in the earth's shadow,  

DLR